Time,TemperatureF,DewpointF,PressureIn,WindDirection,WindDirectionDegrees,WindSpeedMPH,WindSpeedGustMPH,Humidity,HourlyPrecipIn,Conditions,Clouds,dailyrainin,SoftwareType,DateUTC
2013-07-06 00:11:00,76.2,64.0,29.99,ESE,115,5.0,9.0,67,0.00,,,0.00,weatherlink.com 1.10,2013-07-06 05:11:00,
2013-07-06 00:26:00,76.1,64.0,29.99,SE,136,7.0,11.0,67,0.00,,,0.00,weatherlink.com 1.10,2013-07-06 05:26:00,
2013-07-06 00:41:00,75.8,64.0,29.99,SE,140,7.0,10.0,68,0.00,,,0.00,weatherlink.com 1.10,2013-07-06 05:41:00,
2013-07-06 00:56:00,75.7,65.0,29.99,SE,127,8.0,12.0,69,0.00,,,0.00,weatherlink.com 1.10,2013-07-06 05:56:00,
2013-07-06 01:11:00,75.8,65.0,30.00,SSE,152,9.0,15.0,70,0.00,,,0.00,weatherlink.com 1.10,2013-07-06 06:11:00,
2013-07-06 01:26:00,75.8,66.0,30.00,SSE,158,8.0,16.0,71,0.00,,,0.00,weatherlink.com 1.10,2013-07-06 06:26:00,
2013-07-06 01:41:00,75.5,66.0,30.00,ESE,122,11.0,14.0,72,0.00,,,0.00,weatherlink.com 1.10,2013-07-06 06:41:00,
2013-07-06 01:56:00,75.3,66.0,30.00,SSE,168,8.0,14.0,72,0.00,,,0.00,weatherlink.com 1.10,2013-07-06 06:56:00,
2013-07-06 02:11:00,75.1,66.0,30.00,ESE,110,12.0,14.0,73,0.00,,,0.00,weatherlink.com 1.10,2013-07-06 07:11:00,
2013-07-06 02:26:00,75.1,66.0,30.00,SSE,159,9.0,18.0,72,0.00,,,0.00,weatherlink.com 1.10,2013-07-06 07:26:00,
2013-07-06 02:41:00,74.9,65.0,30.00,SE,141,12.0,19.0,72,0.00,,,0.00,weatherlink.com 1.10,2013-07-06 07:41:00,
2013-07-06 02:56:00,74.8,65.0,29.99,SE,144,16.0,19.0,71,0.00,,,0.00,weatherlink.com 1.10,2013-07-06 07:56:00,
2013-07-06 03:11:00,74.6,65.0,30.00,SSE,156,9.0,20.0,72,0.00,,,0.00,weatherlink.com 1.10,2013-07-06 08:11:00,
2013-07-06 03:26:00,74.4,65.0,30.00,SSE,156,10.0,16.0,73,0.00,,,0.00,weatherlink.com 1.10,2013-07-06 08:26:00,
2013-07-06 03:41:00,74.2,65.0,29.99,SSE,159,12.0,12.0,73,0.00,,,0.00,weatherlink.com 1.10,2013-07-06 08:41:00,
2013-07-06 03:56:00,73.9,65.0,29.99,SSE,166,9.0,15.0,73,0.00,,,0.00,weatherlink.com 1.10,2013-07-06 08:56:00,
2013-07-06 04:11:00,73.8,65.0,29.99,South,169,10.0,14.0,73,0.00,,,0.00,weatherlink.com 1.10,2013-07-06 09:11:00,
2013-07-06 04:26:00,73.6,65.0,29.99,SSE,161,9.0,14.0,74,0.00,,,0.00,weatherlink.com 1.10,2013-07-06 09:26:00,
2013-07-06 04:41:00,73.3,65.0,29.99,SSE,167,6.0,10.0,74,0.00,,,0.00,weatherlink.com 1.10,2013-07-06 09:41:00,
2013-07-06 04:56:00,73.2,64.0,30.00,SSE,150,7.0,15.0,74,0.00,,,0.00,weatherlink.com 1.10,2013-07-06 09:56:00,
2013-07-06 05:11:00,73.1,64.0,30.00,SE,146,11.0,13.0,74,0.00,,,0.00,weatherlink.com 1.10,2013-07-06 10:11:00,
2013-07-06 05:26:00,72.9,64.0,29.99,SE,135,12.0,13.0,74,0.00,,,0.00,weatherlink.com 1.10,2013-07-06 10:26:00,
2013-07-06 05:41:00,72.7,64.0,29.99,South,174,12.0,14.0,75,0.00,,,0.00,weatherlink.com 1.10,2013-07-06 10:41:00,
2013-07-06 05:56:00,72.7,64.0,30.00,SSE,163,9.0,13.0,75,0.00,,,0.00,weatherlink.com 1.10,2013-07-06 10:56:00,
2013-07-06 06:11:00,72.8,64.0,29.99,South,175,9.0,15.0,75,0.00,,,0.00,weatherlink.com 1.10,2013-07-06 11:11:00,
2013-07-06 06:26:00,72.8,64.0,30.00,South,173,7.0,18.0,75,0.00,,,0.00,weatherlink.com 1.10,2013-07-06 11:26:00,
2013-07-06 06:41:00,72.9,65.0,30.00,South,170,13.0,19.0,75,0.00,,,0.00,weatherlink.com 1.10,2013-07-06 11:41:00,
2013-07-06 06:56:00,72.9,65.0,30.00,SSE,167,13.0,15.0,75,0.00,,,0.00,weatherlink.com 1.10,2013-07-06 11:56:00,
2013-07-06 07:11:00,73.0,65.0,30.00,SSE,160,13.0,16.0,75,0.00,,,0.00,weatherlink.com 1.10,2013-07-06 12:11:00,
2013-07-06 07:26:00,73.1,65.0,30.00,SSE,159,11.0,18.0,75,0.00,,,0.00,weatherlink.com 1.10,2013-07-06 12:26:00,
2013-07-06 07:41:00,73.4,65.0,30.00,SSE,165,4.0,20.0,74,0.00,,,0.00,weatherlink.com 1.10,2013-07-06 12:41:00,
2013-07-06 07:56:00,73.8,65.0,30.00,SSE,147,14.0,16.0,73,0.00,,,0.00,weatherlink.com 1.10,2013-07-06 12:56:00,
2013-07-06 08:11:00,74.0,65.0,30.00,SSE,153,14.0,18.0,73,0.00,,,0.00,weatherlink.com 1.10,2013-07-06 13:11:00,
2013-07-06 08:26:00,74.6,65.0,30.00,SSE,150,10.0,16.0,72,0.00,,,0.00,weatherlink.com 1.10,2013-07-06 13:26:00,
2013-07-06 08:41:00,74.9,65.0,30.01,SSE,150,10.0,15.0,71,0.00,,,0.00,weatherlink.com 1.10,2013-07-06 13:41:00,
2013-07-06 08:56:00,75.8,66.0,30.00,SE,138,5.0,12.0,71,0.00,,,0.00,weatherlink.com 1.10,2013-07-06 13:56:00,
2013-07-06 09:11:00,75.8,65.0,30.00,SE,134,1.0,14.0,70,0.00,,,0.00,weatherlink.com 1.10,2013-07-06 14:11:00,
2013-07-06 09:26:00,76.3,66.0,30.00,SE,137,9.0,14.0,70,0.00,,,0.00,weatherlink.com 1.10,2013-07-06 14:26:00,
2013-07-06 09:41:00,76.9,66.0,29.99,SE,130,12.0,18.0,69,0.00,,,0.00,weatherlink.com 1.10,2013-07-06 14:41:00,
2013-07-06 09:56:00,77.3,66.0,29.99,SE,146,13.0,16.0,68,0.00,,,0.00,weatherlink.com 1.10,2013-07-06 14:56:00,
2013-07-06 10:11:00,78.5,66.0,29.98,SSE,160,15.0,15.0,66,0.00,,,0.00,weatherlink.com 1.10,2013-07-06 15:11:00,
2013-07-06 10:26:00,78.5,66.0,29.98,SE,135,10.0,15.0,66,0.00,,,0.00,weatherlink.com 1.10,2013-07-06 15:26:00,
2013-07-06 10:41:00,78.3,66.0,29.98,South,177,13.0,20.0,65,0.00,,,0.00,weatherlink.com 1.10,2013-07-06 15:41:00,
2013-07-06 10:56:00,79.1,66.0,29.98,SSE,165,13.0,20.0,64,0.00,,,0.00,weatherlink.com 1.10,2013-07-06 15:56:00,
2013-07-06 11:26:00,80.2,66.0,29.97,SE,146,8.0,18.0,63,0.00,,,0.00,weatherlink.com 1.10,2013-07-06 16:26:00,
2013-07-06 11:42:00,81.2,66.0,29.97,South,171,12.0,16.0,61,0.00,,,0.00,weatherlink.com 1.10,2013-07-06 16:42:00,
2013-07-06 12:12:00,81.6,67.0,29.96,ESE,117,9.0,18.0,61,0.00,,,0.00,weatherlink.com 1.10,2013-07-06 17:12:00,
2013-07-06 12:27:00,82.8,67.0,29.96,SE,130,13.0,16.0,60,0.00,,,0.00,weatherlink.com 1.10,2013-07-06 17:27:00,
2013-07-06 12:42:00,83.6,67.0,29.95,South,172,11.0,18.0,57,0.00,,,0.00,weatherlink.com 1.10,2013-07-06 17:42:00,
2013-07-06 12:57:00,84.5,67.0,29.95,SSE,148,12.0,15.0,56,0.00,,,0.00,weatherlink.com 1.10,2013-07-06 17:57:00,
2013-07-06 13:12:00,85.6,68.0,29.95,SSE,151,8.0,18.0,55,0.00,,,0.00,weatherlink.com 1.10,2013-07-06 18:12:00,
2013-07-06 13:27:00,84.3,66.0,29.95,ESE,122,16.0,20.0,55,0.00,,,0.00,weatherlink.com 1.10,2013-07-06 18:27:00,
2013-07-06 13:42:00,84.9,66.0,29.94,SSE,163,12.0,22.0,54,0.00,,,0.00,weatherlink.com 1.10,2013-07-06 18:42:00,
2013-07-06 13:57:00,85.2,67.0,29.95,SSE,161,11.0,24.0,54,0.00,,,0.00,weatherlink.com 1.10,2013-07-06 18:57:00,
2013-07-06 14:12:00,85.2,67.0,29.94,SSE,153,18.0,22.0,54,0.00,,,0.00,weatherlink.com 1.10,2013-07-06 19:12:00,
2013-07-06 14:27:00,85.9,68.0,29.94,SSE,164,11.0,23.0,55,0.00,,,0.00,weatherlink.com 1.10,2013-07-06 19:27:00,
2013-07-06 14:57:00,86.5,68.0,29.94,SSE,153,10.0,20.0,54,0.00,,,0.00,weatherlink.com 1.10,2013-07-06 19:57:00,
2013-07-06 15:27:00,86.6,69.0,29.93,SE,144,9.0,19.0,55,0.00,,,0.00,weatherlink.com 1.10,2013-07-06 20:27:00,
2013-07-06 15:42:00,86.8,68.0,29.93,SE,140,11.0,20.0,54,0.00,,,0.00,weatherlink.com 1.10,2013-07-06 20:42:00,
2013-07-06 15:57:00,87.0,68.0,29.93,SE,140,18.0,20.0,53,0.00,,,0.00,weatherlink.com 1.10,2013-07-06 20:57:00,
2013-07-06 16:27:00,86.6,68.0,29.93,SSE,150,10.0,19.0,54,0.00,,,0.00,weatherlink.com 1.10,2013-07-06 21:27:00,
2013-07-06 16:42:00,86.3,68.0,29.93,SSE,159,11.0,21.0,55,0.00,,,0.00,weatherlink.com 1.10,2013-07-06 21:42:00,
2013-07-06 16:57:00,86.8,69.0,29.93,SE,144,15.0,16.0,55,0.00,,,0.00,weatherlink.com 1.10,2013-07-06 21:57:00,
2013-07-06 17:12:00,86.6,69.0,29.92,South,170,14.0,20.0,56,0.00,,,0.00,weatherlink.com 1.10,2013-07-06 22:12:00,
2013-07-06 17:42:00,86.6,69.0,29.91,SSE,159,13.0,22.0,55,0.00,,,0.00,weatherlink.com 1.10,2013-07-06 22:42:00,
2013-07-06 17:57:00,86.8,69.0,29.91,ESE,104,12.0,20.0,55,0.00,,,0.00,weatherlink.com 1.10,2013-07-06 22:57:00,
2013-07-06 18:42:00,85.8,68.0,29.91,SE,146,14.0,23.0,55,0.00,,,0.00,weatherlink.com 1.10,2013-07-06 23:42:00,
2013-07-06 18:57:00,85.7,68.0,29.90,South,171,9.0,20.0,56,0.00,,,0.00,weatherlink.com 1.10,2013-07-06 23:57:00,
2013-07-06 19:12:00,85.3,68.0,29.90,ESE,120,11.0,20.0,56,0.00,,,0.00,weatherlink.com 1.10,2013-07-07 00:12:00,
2013-07-06 19:27:00,85.2,68.0,29.90,SSE,150,13.0,16.0,57,0.00,,,0.00,weatherlink.com 1.10,2013-07-07 00:27:00,
2013-07-06 19:42:00,84.8,68.0,29.91,SSE,159,13.0,13.0,57,0.00,,,0.00,weatherlink.com 1.10,2013-07-07 00:42:00,
2013-07-06 19:57:00,84.4,68.0,29.91,SE,138,9.0,14.0,58,0.00,,,0.00,weatherlink.com 1.10,2013-07-07 00:57:00,
2013-07-06 20:42:00,83.0,68.0,29.92,SE,137,4.0,15.0,61,0.00,,,0.00,weatherlink.com 1.10,2013-07-07 01:42:00,
2013-07-06 20:57:00,82.6,68.0,29.93,SE,125,7.0,12.0,61,0.00,,,0.00,weatherlink.com 1.10,2013-07-07 01:57:00,
2013-07-06 21:12:00,82.2,68.0,29.93,SE,132,8.0,13.0,62,0.00,,,0.00,weatherlink.com 1.10,2013-07-07 02:12:00,
2013-07-06 21:27:00,81.8,67.0,29.94,SE,142,6.0,10.0,62,0.00,,,0.00,weatherlink.com 1.10,2013-07-07 02:27:00,
2013-07-06 21:42:00,81.6,67.0,29.94,SE,140,5.0,12.0,62,0.00,,,0.00,weatherlink.com 1.10,2013-07-07 02:42:00,
2013-07-06 21:57:00,81.3,67.0,29.94,SE,141,7.0,12.0,62,0.00,,,0.00,weatherlink.com 1.10,2013-07-07 02:57:00,
2013-07-06 22:12:00,81.0,67.0,29.95,ESE,105,11.0,14.0,63,0.00,,,0.00,weatherlink.com 1.10,2013-07-07 03:12:00,
2013-07-06 22:27:00,80.7,67.0,29.95,SE,130,10.0,14.0,63,0.00,,,0.00,weatherlink.com 1.10,2013-07-07 03:27:00,
2013-07-06 22:42:00,80.3,67.0,29.95,SE,126,8.0,13.0,63,0.00,,,0.00,weatherlink.com 1.10,2013-07-07 03:42:00,
2013-07-06 22:57:00,80.0,67.0,29.95,SE,138,5.0,14.0,64,0.00,,,0.00,weatherlink.com 1.10,2013-07-07 03:57:00,
2013-07-06 23:12:00,79.6,67.0,29.95,SE,124,8.0,15.0,65,0.00,,,0.00,weatherlink.com 1.10,2013-07-07 04:12:00,
2013-07-06 23:27:00,79.5,67.0,29.94,SE,138,11.0,16.0,65,0.00,,,0.00,weatherlink.com 1.10,2013-07-07 04:27:00,
2013-07-06 23:42:00,79.3,67.0,29.94,SE,141,9.0,15.0,65,0.00,,,0.00,weatherlink.com 1.10,2013-07-07 04:42:00,
2013-07-06 23:57:00,79.0,67.0,29.94,SE,131,10.0,13.0,66,0.00,,,0.00,weatherlink.com 1.10,2013-07-07 04:57:00,